INSAT-3DS

Last updated on Mon Sep 21 2026 00:02:41 GMT+0000 (Coordinated Universal Time)

1 58990U 24033A 26263.57874174 -.00000160 00000+0 00000+0 0 9991 2 58990 0.0176 227.8959 0001337 310.3715 111.6484 1.00272887 48027
UTC large
Height (km)
Speed (km/s)
/
Latitude / Longitude
Inclination (degrees)
Orbital Period (minutes)
Azimuth
Elevation
Range (km)
Doppler Factor

Next 0 passes for location: London (51.5072 / 0.1276)

No passes found over London.
INSAT-3DS